SCP
0 0 0 0 0 0 0 0 0 0 0 1 1 0 0 0 0 1 1 1 1 1 1 1 1 1 1 1 1 1 1 1 1 1 0 0 0 0 0 0 0 0 0 0 0 0 0 0 0
0 0 0 0 0 0 0 0 0 0 0 1 1 1 1 1 1 1 1 1 1 1 1 1 1 1 1 1 1 1 1 1 1 0 0 0 0 0 0 0 0 0 0 0 0 0 0 0 0
0 0 0 0 0 0 0 0 0 0 0 1 1 1 1 1 1 1 1 1 1 1 1 1 1 1 1 1 1 1 1 1 0 0 0 0 0 0 0 0 0 0 0 0 0 0 0 0 0
0 0 0 0 0 0 0 0 0 0 0 1 1 1 1 1 1 1 1 1 1 1 1 1 1 1 1 1 1 1 1 1 1 0 0 0 0 0 0 0 0 0 0 0 0 0 0 0 0
0 0 0 0 0 0 0 0 0 0 1 1 1 2 1 1 1 1 1 1 1 1 1 1 1 1 1 1 1 1 1 1 1 0 0 0 0 0 0 0 0 0 0 0 0 0 0 0 0
0 0 0 0 0 0 0 0 0 0 1 1 1 2 2 1 1 1 1 1 1 1 1 1 1 1 1 1 1 1 1 1 1 0 1 1 1 0 0 0 0 0 0 0 0 0 0 0 0
0 0 0 0 0 0 0 0 0 1 1 1 1 1 2 2 2 1 1 1 1 1 1 1 1 1 1 1 1 1 1 1 1 1 1 1 1 0 0 0 0 0 0 0 0 0 0 0 0
0 0 0 0 0 0 0 0 1 1 1 1 1 1 2 2 2 2 1 1 1 1 1 1 1 1 1 1 1 1 1 1 1 1 1 1 0 0 0 0 0 0 0 0 0 0 0 0 0
0 0 0 0 0 0 0 0 1 1 1 2 2 2 2 3 3 3 2 1 1 1 1 1 1 1 1 1 1 1 1 1 1 1 1 1 0 0 0 0 0 0 0 0 0 0 0 0 0
0 0 0 0 0 0 0 0 1 1 1 2 2 3 3 3 4 3 3 2 1 1 1 1 1 1 1 1 1 1 1 1 1 1 1 1 0 0 0 0 0 0 0 0 0 0 0 0 0
0 0 0 0 0 0 0 0 0 1 1 2 2 3 3 3 4 4 3 2 2 1 1 1 1 1 1 1 1 1 1 1 1 1 1 1 1 0 0 0 0 0 0 0 0 0 0 0 0
0 0 0 0 0 0 0 0 0 0 0 1 2 3 3 3 4 3 3 2 2 1 1 1 2 2 2 2 1 1 1 1 1 1 1 1 1 1 0 0 0 0 0 0 0 0 0 0 0
0 0 0 0 0 0 0 0 0 0 0 1 2 3 3 3 4 4 3 2 2 2 2 2 2 2 2 2 2 2 1 1 1 1 1 1 1 1 1 1 1 0 0 0 0 0 0 0 0
0 0 0 0 0 0 0 0 0 0 1 1 2 2 3 3 4 4 3 3 2 2 3 3 2 2 2 3 3 3 2 2 1 1 1 1 1 1 1 1 1 0 0 0 0 0 0 0 0
0 0 0 0 0 0 0 0 0 0 1 1 2 2 2 3 3 4 4 3 3 3 3 3 3 2 3 3 3 3 3 2 1 1 1 1 1 1 1 1 1 0 0 0 0 0 0 0 0
0 0 0 0 0 0 0 0 0 1 1 1 2 2 2 3 3 4 4 3 3 3 3 3 3 3 3 2 3 4 3 2 1 2 2 1 1 1 1 1 1 1 0 0 0 0 0 0 0
0 0 0 0 0 0 0 0 1 1 1 2 2 2 2 2 3 3 3 3 2 2 3 3 3 3 3 3 3 3 3 3 2 2 2 2 1 1 1 1 1 1 1 0 0 0 0 0 0
0 0 0 0 0 0 0 0 1 1 2 2 2 2 2 2 2 2 2 2 2 2 2 3 3 3 3 3 3 3 3 3 2 2 2 2 1 1 1 1 1 1 1 1 0 0 0 0 0
0 0 0 0 0 0 0 0 1 1 2 2 2 2 2 3 3 2 2 2 2 2 3 3 3 3 3 3 3 3 3 3 3 2 2 2 1 1 1 1 2 2 1 1 1 1 1 0 0
0 0 0 0 0 0 0 0 1 1 1 2 2 2 3 3 3 3 3 3 3 3 3 4 4 3 3 3 3 3 3 3 2 2 1 1 1 1 1 1 2 2 2 1 1 1 1 1 0
0 0 0 0 0 0 0 0 0 1 1 2 2 2 3 3 3 3 4 4 3 3 3 4 4 4 3 3 3 3 3 2 2 2 1 1 1 1 1 2 2 2 2 2 1 1 1 1 1
0 0 0 0 0 0 0 0 0 1 1 2 3 3 3 3 3 3 4 4 3 3 3 3 4 4 3 3 3 3 2 2 2 2 2 2 2 1 1 2 2 2 2 2 1 1 1 1 1
0 0 0 0 0 0 0 0 0 1 2 2 3 4 4 4 4 4 4 4 3 2 2 3 3 3 3 3 3 2 2 2 2 2 2 2 2 2 1 2 2 2 2 2 1 1 1 1 1
0 0 0 0 0 0 0 0 0 1 2 2 3 4 4 5 5 5 4 3 2 2 2 2 3 3 3 3 2 2 2 2 2 2 2 2 2 2 1 1 2 2 2 2 2 1 1 1 1
0 0 0 0 0 0 0 0 1 1 2 2 2 3 3 4 4 4 3 3 3 3 2 2 3 3 2 2 2 2 2 2 2 2 2 2 1 1 1 1 2 2 2 2 2 2 1 1 1
0 0 0 0 0 0 0 0 1 1 2 2 2 2 2 2 2 3 3 3 3 3 3 3 3 3 3 2 2 3 3 3 3 2 2 2 1 1 1 2 2 2 2 2 3 3 2 1 1
0 0 0 0 0 0 0 0 1 1 2 2 2 2 2 2 2 2 2 3 3 3 4 4 4 4 3 3 3 3 3 3 3 3 3 2 2 1 1 2 2 2 2 3 3 3 2 2 2
0 0 0 0 0 0 0 0 1 1 2 2 2 2 2 2 2 2 3 3 3 3 4 4 4 4 3 3 3 3 4 4 4 4 3 3 3 2 2 2 2 2 2 3 3 3 2 2 2
0 0 0 0 0 0 0 0 1 1 2 2 2 2 2 2 2 2 3 3 4 4 4 4 4 4 3 3 3 3 4 4 5 5 4 4 3 3 3 2 2 2 3 3 3 3 3 3 3
0 0 0 0 0 0 0 0 1 1 2 2 2 2 2 2 2 3 3 4 4 4 4 4 4 3 3 3 3 3 4 4 5 5 5 4 4 3 3 2 2 2 3 3 4 4 3 3 3
Wind_Speed
9 8 6 6 7 4 5 5 3 4 4 4 4 2 3 5 5 7 9 16 17 17 17 16 13 14 14 14 15 15 15 15 15 15 15 14 14 14 14 14 14 14 14 14 14 14 14 14 14
6 5 6 7 6 3 6 4 4 5 5 6 5 3 4 7 8 10 13 16 18 17 16 15 16 14 14 14 14 14 14 14 14 14 14 14 14 14 14 14 14 14 14 14 14 14 14 14 13
6 7 7 6 3 2 6 5 5 6 5 4 4 4 4 6 8 9 14 18 17 16 16 17 16 15 14 14 14 14 14 14 14 14 13 13 13 13 13 13 13 13 13 13 13 13 13 13 13
6 7 7 7 3 4 3 4 4 6 5 4 4 7 7 7 6 11 18 18 17 16 16 18 15 15 14 14 13 13 13 13 13 13 13 13 13 13 13 13 13 13 13 13 13 12 12 12 12
7 6 7 6 3 3 1 2 3 4 4 5 4 7 8 6 9 16 18 18 17 16 16 18 15 15 14 14 13 13 13 13 13 13 12 12 12 12 13 13 13 13 13 12 12 11 11 11 11
6 6 8 5 5 3 2 3 5 4 4 6 6 7 8 8 13 17 17 16 16 16 16 17 15 14 14 13 13 13 13 13 12 12 12 12 12 12 12 12 12 12 12 11 11 10 10 10 10
8 7 6 4 4 4 3 3 4 4 5 6 5 7 9 10 14 16 16 15 15 15 15 15 15 14 14 13 13 12 12 12 12 12 12 12 12 12 12 12 11 11 11 11 10 10 10 10 10
6 6 7 6 5 4 4 4 2 3 4 5 5 6 10 14 16 16 15 14 14 13 13 14 13 13 13 13 13 12 12 12 12 12 12 12 12 11 11 11 11 11 10 10 10 9 9 9 9
7 9 7 6 4 5 5 5 4 2 6 6 3 4 13 21 19 17 15 14 13 13 12 12 13 12 12 12 13 12 12 11 11 11 11 10 9 10 9 11 10 10 10 9 9 8 8 8 9
8 9 4 1 1 2 4 4 4 7 8 8 8 10 19 21 20 19 18 17 16 15 14 11 12 12 11 9 10 8 9 9 7 8 9 6 5 5 8 12 9 9 9 9 8 7 7 6 7
9 8 2 3 2 3 3 4 5 8 8 9 12 17 21 21 19 18 17 17 16 15 13 12 11 10 10 8 8 5 5 6 7 8 7 5 5 5 6 6 7 7 8 7 8 7 3 3 3
9 8 6 4 3 5 4 4 6 8 4 4 10 19 22 21 20 19 18 16 16 15 14 13 12 10 9 8 7 6 6 5 6 7 7 6 4 4 4 3 4 5 3 3 3 3 3 3 3
13 8 7 7 7 7 7 8 6 6 4 6 12 19 21 20 19 17 16 16 16 15 14 13 12 11 9 7 6 6 6 6 6 6 5 5 4 4 4 3 2 3 4 4 3 3 4 3 3
10 10 9 8 8 7 9 8 8 6 7 10 15 18 19 19 19 17 17 16 16 16 15 13 13 12 10 8 7 6 6 5 6 6 7 6 4 4 4 4 3 3 3 2 2 4 3 2 2
8 10 11 11 10 7 8 10 10 7 9 12 14 16 17 17 17 18 17 16 16 15 15 14 13 12 11 9 9 7 6 7 6 6 6 6 5 5 4 4 4 3 3 3 2 3 2 3 3
11 12 12 10 10 9 11 11 10 9 11 12 13 14 15 16 17 16 16 15 15 15 14 14 12 13 11 9 8 6 6 6 6 6 6 7 5 5 4 4 4 4 4 4 3 3 3 2 2
13 14 13 10 9 8 12 9 9 9 11 12 13 14 15 15 16 15 16 15 15 15 15 15 13 13 12 10 8 7 6 6 5 5 6 7 7 6 5 3 3 4 4 3 4 3 2 2 2
14 14 13 11 9 10 12 10 7 9 11 11 13 14 15 16 16 16 15 15 14 14 14 14 14 13 12 10 8 6 7 7 6 6 6 7 6 6 5 4 4 5 4 3 2 2 2 2 2
7 11 11 9 6 9 11 10 8 8 10 12 13 14 15 15 15 15 15 15 15 14 15 15 15 14 11 9 9 8 8 7 6 6 7 8 7 7 5 4 5 5 4 4 4 4 4 3 2
10 12 11 8 6 8 9 11 8 9 11 11 13 14 15 14 15 15 15 15 16 16 15 15 15 15 13 10 8 7 7 7 6 6 7 8 8 7 7 5 5 5 4 4 4 4 3 3 3
14 13 11 8 7 9 9 12 11 9 10 11 12 13 14 15 16 16 17 17 16 16 16 14 15 14 14 12 8 7 6 6 7 8 7 9 9 8 7 7 5 5 6 5 5 5 6 3 3
15 12 9 9 10 9 10 10 11 10 11 12 12 13 14 15 15 16 17 17 16 16 15 15 15 14 14 13 12 12 10 9 9 8 8 8 9 9 8 7 6 5 5 4 6 6 4 4 4
11 9 10 11 11 10 10 11 9 11 11 12 13 14 14 14 15 15 16 16 16 15 14 14 14 14 14 14 14 13 11 9 7 8 9 9 8 9 9 8 7 6 5 5 4 4 5 4 4
10 10 9 10 11 14 13 12 9 9 11 11 11 13 14 14 14 14 14 14 14 14 14 13 14 14 14 14 14 14 13 11 10 10 9 9 7 7 9 9 7 7 5 5 5 5 6 5 4
15 13 10 11 11 11 10 11 8 4 7 8 9 12 14 14 13 13 14 14 14 15 14 13 14 14 14 15 14 14 13 12 12 10 9 9 8 7 9 9 8 7 6 6 6 6 5 6 5
19 19 11 9 11 9 9 11 6 5 4 5 6 8 11 13 13 13 14 14 14 15 15 14 14 14 14 14 14 13 13 10 9 11 9 9 7 7 8 9 8 8 8 7 6 6 6 5 6
19 18 15 9 7 9 9 8 6 6 7 7 7 9 11 13 13 13 13 13 14 14 15 15 14 13 14 14 14 13 13 12 10 10 10 8 7 7 9 9 9 9 9 8 7 6 6 6 7
15 16 11 11 10 11 10 10 8 10 9 9 9 10 11 11 12 13 13 13 12 12 12 13 13 13 13 13 13 11 12 12 11 10 10 9 9 9 9 9 10 10 9 9 8 7 7 7 7
16 17 14 12 11 10 8 6 5 7 7 7 8 9 10 11 12 12 11 11 11 11 11 12 12 12 12 12 12 12 12 12 11 10 10 10 9 10 10 10 10 10 10 9 9 9 8 9 8
16 15 16 13 10 10 8 4 7 5 5 5 7 8 9 10 11 11 11 10 10 10 10 11 11 11 12 11 11 11 11 11 11 11 11 10 10 10 10 10 10 10 10 9 10 10 9 9 9
Wind_Direction
200 207 228 241 239 216 89 85 75 104 101 90 104 79 54 40 18 69 115 139 136 135 133 139 133 128 126 123 121 119 117 116 114 112 111 110 108 107 106 105 104 105 105 104 103 103 102 101 100
197 206 233 242 254 150 101 94 103 77 91 120 115 103 84 74 59 103 135 138 140 136 139 138 133 131 128 125 123 121 120 118 116 114 112 111 109 107 105 104 103 104 105 105 104 104 103 102 100
202 231 257 249 249 71 98 102 102 104 125 145 122 78 59 73 103 125 137 143 141 138 136 131 139 135 132 129 126 124 122 121 120 118 115 112 110 108 106 105 105 105 106 106 105 103 103 103 103
215 223 236 246 175 84 72 106 124 142 143 146 140 108 84 74 115 133 142 146 143 142 138 134 143 139 136 133 130 129 125 123 122 120 117 115 112 110 108 107 106 106 106 105 105 104 105 106 107
238 246 234 217 156 118 146 148 173 175 159 152 152 113 94 87 117 136 146 148 147 143 137 138 144 141 139 137 134 132 128 126 123 121 119 116 114 112 110 109 108 107 106 106 105 106 107 108 109
228 240 237 198 149 152 165 188 200 188 153 151 152 123 94 115 134 145 149 151 147 144 139 136 144 142 141 139 137 135 132 129 126 124 121 116 113 111 112 110 109 109 108 107 106 105 107 107 109
252 248 247 217 166 164 146 183 198 179 169 157 152 126 117 137 144 147 148 153 149 147 141 145 149 148 145 140 139 137 134 132 131 127 122 118 115 114 113 110 111 111 110 109 107 105 107 108 111
265 257 228 208 195 148 134 167 172 190 136 124 166 151 142 149 150 149 150 151 151 150 147 150 150 151 154 148 143 139 136 134 131 129 127 125 124 122 124 125 113 114 114 111 107 104 107 111 114
245 245 222 194 191 138 143 170 154 153 139 150 153 92 125 143 152 151 152 155 158 157 155 155 152 158 160 151 144 147 143 138 141 136 137 154 148 136 145 110 118 119 117 113 107 105 112 126 125
228 240 218 124 234 143 165 199 170 183 174 161 142 118 132 150 158 161 164 165 165 166 164 163 159 162 162 151 149 157 156 151 157 142 151 150 128 125 116 116 123 122 123 122 114 120 159 188 139
223 244 222 198 220 267 222 215 202 214 202 187 170 152 153 160 164 169 172 171 167 169 168 167 164 168 164 156 158 158 150 148 151 146 149 139 144 141 136 139 143 146 157 151 144 175 160 118 92
228 235 242 231 224 254 256 232 219 227 221 158 163 158 161 168 172 175 174 173 169 172 173 169 166 169 170 163 157 162 160 158 154 149 163 152 148 147 135 147 147 154 150 139 151 134 109 98 115
225 229 228 239 244 253 259 243 240 235 208 152 152 161 171 175 176 176 174 173 172 175 176 171 171 170 171 167 173 167 167 162 151 155 158 159 158 156 144 138 153 159 145 157 154 133 121 129 136
222 232 234 236 237 237 241 235 227 221 181 164 164 170 176 178 176 174 176 177 177 178 177 173 177 173 173 174 176 168 169 163 163 164 158 175 165 154 155 161 171 160 160 138 155 132 147 147 120
228 231 228 223 221 218 227 220 216 197 178 175 175 174 177 179 179 181 180 180 180 180 176 176 178 176 178 180 181 177 175 173 173 159 162 176 173 161 175 167 182 161 155 152 172 141 153 163 153
213 222 220 198 206 202 224 219 184 173 184 184 180 177 178 180 184 184 181 181 181 180 177 178 182 180 182 184 187 183 182 175 177 169 167 178 175 178 187 183 177 163 180 178 168 187 175 154 155
205 215 211 180 194 196 220 225 162 177 189 189 184 182 182 181 187 185 183 183 183 182 179 180 185 182 183 185 186 189 179 185 186 181 176 174 182 184 200 190 160 191 193 191 199 160 194 172 169
202 212 207 196 181 205 218 221 177 189 200 196 189 187 187 188 188 185 183 184 184 184 183 183 184 183 182 183 186 188 187 190 193 188 181 179 182 188 202 184 178 207 196 195 194 165 192 195 194
232 220 209 194 176 218 222 225 206 192 205 203 196 192 192 194 185 182 183 184 185 186 186 186 186 183 183 188 191 188 187 190 191 191 182 187 188 183 205 197 178 214 201 205 200 206 189 193 187
225 220 209 188 196 231 228 233 220 207 212 211 202 196 193 186 181 181 183 186 188 189 190 189 190 187 189 192 195 193 189 192 191 192 184 195 192 190 196 207 200 199 197 204 211 213 223 195 191
220 222 212 198 195 221 234 230 216 209 213 211 209 202 196 189 186 184 186 190 191 191 191 192 192 191 194 192 190 187 186 195 190 192 191 199 197 197 206 198 212 200 212 199 211 209 216 215 199
216 218 224 217 222 212 219 234 200 200 202 206 207 202 198 192 189 188 188 191 192 191 190 192 192 193 193 192 196 192 196 197 197 194 189 192 198 200 201 204 205 210 218 199 213 203 214 217 215
219 203 214 222 230 236 214 245 207 190 211 209 205 204 199 192 190 189 190 190 191 189 188 189 190 194 195 197 199 201 203 201 195 194 190 196 195 202 204 202 201 206 216 212 225 197 224 220 225
203 190 202 223 232 231 223 233 229 198 212 212 200 200 198 191 190 189 188 186 186 184 185 185 188 193 196 200 202 205 203 200 197 197 193 197 195 200 202 204 202 206 212 207 212 213 214 235 234
201 194 194 202 213 225 204 227 237 199 204 218 208 197 193 189 187 186 186 184 182 182 184 186 188 192 195 199 203 203 203 202 202 202 201 203 200 198 198 204 203 206 207 210 209 211 226 219 220
203 210 216 209 210 202 186 225 219 186 206 215 212 197 186 185 186 187 186 184 184 183 185 187 191 193 194 198 201 200 200 204 204 206 207 206 211 204 193 200 203 205 206 207 205 217 214 215 222
201 215 230 250 236 222 196 208 208 193 206 200 192 187 185 186 185 185 184 183 183 183 185 187 189 192 194 197 198 198 201 206 205 202 208 209 210 206 197 198 201 205 205 206 206 217 217 214 221
215 208 215 231 223 223 208 210 209 185 195 189 188 186 180 182 183 182 182 180 179 179 180 183 188 191 192 195 198 198 200 203 204 206 207 209 206 205 201 204 204 205 205 206 210 211 209 215 221
201 204 210 219 237 236 218 205 181 186 187 183 178 176 175 179 178 176 176 174 172 176 178 182 186 190 192 196 198 200 200 200 202 205 206 208 207 204 205 206 208 207 207 207 208 217 207 215 217
206 207 207 212 213 240 254 171 124 160 163 168 160 159 164 169 167 167 166 165 168 175 179 182 187 190 192 192 196 199 200 199 202 205 207 207 207 208 209 209 210 210 208 207 209 214 211 213 215